[Iaude] MPEC X02: 2016 WU9 [a=3.63,e=0.76,i=11.8,H=25.1]

mpec at si.edu mpec at si.edu
Wed Nov 30 19:16:04 EST 2016


M.P.E.C. 2016-X02                                Issued 2016 Dec. 1, 00:11 UT
 
     The Minor Planet Electronic Circulars contain information on unusual
         minor planets and routine data on comets.  They are published
    on behalf of Division F of the International Astronomical Union by the
          Minor Planet Center, Smithsonian Astrophysical Observatory,
                          Cambridge, MA 02138, U.S.A.

             Prepared using the Tamkin Foundation Computer Network

                              MPC at CFA.HARVARD.EDU
            URL http://www.minorplanetcenter.net/    ISSN 1523-6714


                                   2016 WU9
 
Observations:
     K16W09U* C2016 11 26.26428 04 57 55.25 +19 21 30.6          19.9 VqEX002G96
     K16W09U  C2016 11 26.26538 04 57 55.92 +19 21 20.2          19.6 VqEX002G96
     K16W09U  C2016 11 26.26596 04 57 56.34 +19 21 14.5          20.2 VqEX002G96
     K16W09U  C2016 11 26.51080 05 00 41.897+18 39 50.54         21.0 wLEX002F51
     K16W09U  C2016 11 26.52445 05 00 50.993+18 37 26.52         20.9 wLEX002F51
     K16W09U  C2016 11 26.53808 05 01 00.161+18 35 01.12         20.8 wLEX002F51
     K16W09U  C2016 11 26.55176 05 01 09.430+18 32 34.18         20.6 wLEX002F51
     K16W09U EC2016 11 30.03845005 57 55.13 +03 06 42.1          19.6 RqEX002J95
     K16W09U EC2016 11 30.08080905 58 48.90 +02 50 42.9          19.5 RqEX002J95
     K16W09U KC2016 11 30.12597605 59 46.88 +02 33 30.8          19.6 RqEX002J95
     K16W09U  C2016 11 30.25145 06 02 43.40 +01 45 38.1          20.3 RoEX002926
     K16W09U  C2016 11 30.25429 06 02 47.16 +01 44 31.0          20.0 RoEX002926
     K16W09U  C2016 11 30.25714 06 02 50.90 +01 43 24.5          20.0 RoEX002926
 
Observer details:
926 Tenagra II Observatory.  Observers M. Schwartz, P. R. Holvorcem.  Measurer
    M. Schwartz.  0.81-m f/7 Ritchey-Chretien + CCD.
F51 Pan-STARRS 1, Haleakala.  Observers B. Gibson, T. Goggia, S. Kahale,
    A. Schultz, M. Willman.  Measurers K. Chambers, S. Chastel, L. Denneau,
    H. Flewelling, M. Huber, E. Lilly, E. Magnier, R. Wainscoat, C. Waters,
    R. Weryk.  1.8-m Ritchey-Chretien + CCD.
G96 Mt. Lemmon Survey.  Observer G. J. Leonard.  Measurers E. J. Christensen,
    D. C. Fuls, A. R. Gibbs, A. D. Grauer, J. A. Johnson, R. A. Kowalski,
    S. M. Larson, G. J. Leonard, R. G. Matheny, R. L. Seaman, F. C. Shelly.
    1.5-m reflector + 10K CCD.
J95 Great Shefford.  Observer P. Birtwhistle.  0.40-m f/6.0 Schmidt-Cassegrain
    + CCD.
 
Orbital elements:
2016 WU9                                                 Earth MOID = 0.0403 AU
Epoch 2017 Feb. 16.0 TT = JDT 2457800.5                 MPC
M   5.85869              (2000.0)            P               Q
n   0.14242732     Peri.  238.66730     -0.52073432     -0.83372912
a   3.6313980      Node   243.80966     +0.83621401     -0.45477297
e   0.7641647      Incl.   11.81047     +0.17199388     -0.31317297
P   6.92           H   25.1           G   0.15           U   7
Residuals in seconds of arc
161126 G96  0.5+  0.5-    161126 F51  0.2-  0.2+    161130 926  0.3-  0.4+
161126 G96  0.1-  0.0     161126 F51  0.2+  0.6-    161130 926  0.1+  0.0
161126 G96  0.6+  0.0     161130 J95  0.1-  0.4-    161130 926  0.0   0.4+
161126 F51  0.1+  0.0     161130 J95  0.7-  0.0
161126 F51  0.4-  0.6+    161130 J95  0.8+  0.2+

Ephemeris:
2016 WU9                 a,e,i = 3.63, 0.76, 12                  q = 0.8564
Date    TT    R. A. (2000) Decl.     Delta      r     Elong.  Phase     V
2016 11 01    03 27 43.2 +34 55 58   0.3526  1.3209   155.2    18.4    24.4
...
2016 11 16    03 55 38.3 +31 58 21   0.1836  1.1673   165.2    12.5    22.5
...
2016 11 24    04 36 10.0 +24 22 15   0.1047  1.0907   170.6     8.5    21.0
...
2016 11 30    05 57 03.2 +03 23 17   0.05775 1.0372   151.1    27.3    20.2
2016 12 01    06 20 40.5 -03 25 53   0.05282 1.0287   142.8    35.4    20.2
2016 12 02    06 48 42.2 -11 20 14   0.04945 1.0203   133.0    45.0    20.3
...
2016 12 08    10 34 15.6 -46 40 09   0.06708 0.9731    77.8    98.3    22.7
...
2016 12 16    13 05 04.6 -48 19 02   0.1342  0.9201    58.0   114.9    25.0
...
2016 12 31    14 21 59.2 -44 46 20   0.2760  0.8617    56.4   108.2    26.0

A. U. Tomatic                (C) Copyright 2016 MPC           M.P.E.C. 2016-X02




More information about the Iaude mailing list